FW9853 Weather Reports


time (UTC)temp
F
wind
direction
speed
knots
gust
knots
rain 1hr
in
rain 24hr
in
rain mn
in
humidity
%
barometer
mb
20260506150027 66 0.0 0.0 0.00 0.00 0.00 66 1008.1
20260506145024 67 0.0 0.0 0.00 0.00 0.00 64 1008.3
20260506144021 68 0.0 0.0 0.00 0.00 0.00 61 1008.5
20260506143035 72 0.0 0.0 0.00 0.00 0.00 55 1008.4
20260506142035 74 0.0 0.0 0.00 0.00 0.00 53 1008.6
20260506141029 77 0.0 0.0 0.00 0.00 0.00 52 1008.5
20260506140027 71 0.0 0.0 0.00 0.00 0.00 59 1008.6
20260506135041 71 0.0 0.0 0.00 0.00 0.00 57 1008.8
20260506134020 76 0.0 0.0 0.00 0.00 0.00 52 1008.7
20260506133017 74 0.0 0.0 0.00 0.00 0.00 58 1008.7
20260506132034 70 0.0 0.0 0.00 0.00 0.00 64 1008.4
20260506131101 66 0.0 0.0 0.00 0.00 0.00 66 1008.7
20260506130025 68 0.0 0.0 0.00 0.00 0.00 63 1008.4
20260506125022 71 0.0 0.0 0.00 0.00 0.00 60 1008.7
20260506124019 73 0.0 0.0 0.00 0.00 0.00 57 1008.9
20260506123016 71 0.0 0.0 0.00 0.00 0.00 62 1008.8
20260506122030 74 0.0 0.0 0.00 0.00 0.00 58 1009.0
20260506121028 75 0.0 0.0 0.00 0.00 0.00 65 1008.9
20260506120024 62 0.0 0.0 0.00 0.00 0.00 81 1008.5
20260506115021 61 0.0 0.0 0.00 0.00 0.00 81 1008.9
20260506114018 62 0.0 0.0 0.00 0.00 0.00 82 1008.9
20260506113015 59 0.0 0.0 0.00 0.00 0.00 86 1008.6
20260506112028 58 0.0 0.0 0.00 0.00 0.00 88 1008.6
20260506111026 56 0.0 0.0 0.00 0.00 0.00 88 1008.8
20260506110023 56 0.0 0.0 0.00 0.00 0.00 88 1008.6
20260506105040 55 0.0 0.0 0.00 0.00 0.00 90 1008.6
20260506104017 54 0.0 0.0 0.00 0.00 0.00 91 1008.6
20260506103030 53 0.0 0.0 0.00 0.00 0.00 91 1008.8
20260506102028 53 0.0 0.0 0.00 0.00 0.00 91 1008.8
20260506101044 53 0.0 0.0 0.00 0.00 0.00 91 1008.7
20260506100022 53 0.0 0.0 0.00 0.00 0.00 91 1008.5
20260506095019 53 0.0 0.0 0.00 0.00 0.00 91 1008.5
20260506094016 53 0.0 0.0 0.00 0.00 0.00 91 1008.6
20260506093029 53 0.0 0.0 0.00 0.00 0.00 90 1008.5
20260506092046 53 0.0 0.0 0.00 0.00 0.00 91 1008.5
20260506091023 54 0.0 0.0 0.00 0.00 0.00 90 1008.5
20260506090020 54 0.0 0.0 0.00 0.00 0.00 90 1008.5
20260506085039 54 0.0 0.0 0.00 0.00 0.00 90 1008.5
20260506084031 54 0.0 0.0 0.00 0.00 0.00 88 1008.7
20260506083028 54 0.0 0.0 0.00 0.00 0.00 88 1008.5
20260506082025 54 0.0 0.0 0.00 0.00 0.00 88 1008.9
20260506081022 54 0.0 0.0 0.00 0.00 0.00 88 1008.9
20260506073027 55 0.0 0.0 0.00 0.00 0.00 88 1009.1
20260506072024 55 0.0 0.0 0.00 0.00 0.00 88 1009.3
20260506071021 55 0.0 0.0 0.00 0.00 0.00 88 1009.2
20260506062023 55 0.0 0.0 0.00 0.00 0.00 86 1009.1
20260506061020 56 0.0 0.0 0.00 0.00 0.00 86 1009.0
20260506051019 57 0.0 0.0 0.00 0.00 0.00 86 1009.1
20260506045030 57 0.0 0.0 0.00 0.00 0.00 86 1009.1
20260506044027 57 0.0 0.0 0.00 0.00 0.00 86 1009.1
20260506043024 57 0.0 0.0 0.00 0.00 0.00 86 1009.3
20260506042021 57 0.0 0.0 0.00 0.00 0.00 86 1009.3
20260506041018 56 0.0 0.0 0.00 0.00 0.00 86 1009.5
20260506040015 56 0.0 0.0 0.00 0.00 0.00 86 1009.5
20260506035029 56 0.0 0.0 0.00 0.00 0.00 86 1009.6
20260506034026 56 0.0 0.0 0.00 0.00 0.00 85 1009.5
20260506033023 56 0.0 0.0 0.00 0.00 0.00 85 1009.6
20260506032020 56 0.0 0.0 0.00 0.00 0.00 85 1009.7
20260506031017 56 0.0 0.0 0.00 0.00 0.00 85 1009.5
20260506030031 56 0.0 0.0 0.00 0.00 0.00 85 1009.7
20260506025028 56 0.0 0.0 0.00 0.00 0.00 86 1009.4
20260506024025 56 0.0 0.0 0.00 0.00 0.00 85 1009.7
20260506023023 56 0.0 0.0 0.00 0.00 0.00 85 1009.5
20260506022039 56 0.0 0.0 0.00 0.00 0.00 83 1009.5
20260506021133 57 0.0 0.0 0.00 0.00 0.00 83 1009.5
20260506020046 57 0.0 0.0 0.00 0.00 0.00 83 1009.5
20260506015027 57 0.0 0.0 0.00 0.00 0.00 81 1009.3
20260506014041 57 0.0 0.0 0.00 0.00 0.00 81 1009.1
20260506013111 58 0.0 0.0 0.00 0.00 0.00 81 1009.1
20260506012128 58 0.0 0.0 0.00 0.00 0.00 80 1009.0
20260506011139 58 0.0 0.0 0.00 0.00 0.00 79 1008.8
20260506010028 59 0.0 0.0 0.00 0.00 0.00 79 1008.7
20260506005025 59 0.0 0.0 0.00 0.00 0.00 78 1008.2
20260506004043 59 0.0 0.0 0.00 0.00 0.00 77 1008.4
20260506003023 59 0.0 0.0 0.00 0.00 0.00 76 1008.1
20260506002017 59 0.0 0.0 0.00 0.00 0.00 76 1008.1
20260506001031 59 0.0 0.0 0.00 0.00 0.00 76 1008.0
20260506000044 59 0.0 0.0 0.00 0.00 0.00 78 1007.8
20260505235024 59 0.0 0.0 0.00 0.00 0.00 76 1007.4
20260505234021 59 0.0 0.0 0.00 0.00 0.00 76 1007.4
20260505233035 60 0.0 0.0 0.00 0.00 0.00 76 1007.4
20260505232035 60 0.0 0.0 0.00 0.00 0.00 76 1007.1
20260505231029 60 0.0 0.0 0.00 0.00 0.00 76 1007.0
20260505230026 60 0.0 0.0 0.00 0.00 0.00 75 1006.9
20260505225023 61 0.0 0.0 0.00 0.00 0.00 74 1006.9
20260505224040 61 0.0 0.0 0.00 0.00 0.00 73 1006.9
20260505223038 62 0.0 0.0 0.00 0.00 0.00 73 1006.7
20260505222031 62 0.0 0.0 0.00 0.00 0.00 71 1006.8
20260505221028 62 0.0 0.0 0.00 0.00 0.00 71 1006.7
20260505220025 62 0.0 0.0 0.00 0.00 0.00 70 1006.6
20260505215022 63 0.0 0.0 0.00 0.00 0.00 69 1006.3
20260505214022 63 0.0 0.0 0.00 0.00 0.00 67 1006.3
20260505213016 64 0.0 0.0 0.00 0.00 0.00 66 1006.3
20260505212030 64 0.0 0.0 0.00 0.00 0.00 65 1006.0
20260505211027 64 0.0 0.0 0.00 0.00 0.00 64 1006.0
20260505210024 65 0.0 0.0 0.00 0.00 0.00 63 1005.9
20260505205021 65 0.0 0.0 0.00 0.00 0.00 63 1006.2
20260505204018 66 0.0 0.0 0.00 0.00 0.00 61 1006.0
20260505203015 67 0.0 0.0 0.00 0.00 0.00 60 1006.2
20260505202029 68 0.0 0.0 0.00 0.00 0.00 58 1006.4
20260505201026 69 0.0 0.0 0.00 0.00 0.00 55 1006.3
20260505200023 69 0.0 0.0 0.00 0.00 0.00 55 1006.4
20260505195020 71 0.0 0.0 0.00 0.00 0.00 51 1006.4
20260505194017 72 0.0 0.0 0.00 0.00 0.00 50 1006.9
20260505193047 72 0.0 0.0 0.00 0.00 0.00 50 1006.8
20260505192028 74 0.0 0.0 0.00 0.00 0.00 50 1007.1
20260505191045 74 0.0 0.0 0.00 0.00 0.00 50 1007.5
20260505190022 73 0.0 0.0 0.00 0.00 0.00 50 1007.6
20260505185019 74 0.0 0.0 0.00 0.00 0.00 49 1007.8
20260505184016 75 0.0 0.0 0.00 0.00 0.00 48 1007.8
20260505183030 75 0.0 0.0 0.00 0.00 0.00 48 1007.9
20260505182028 74 0.0 0.0 0.00 0.00 0.00 49 1008.0
20260505181024 76 0.0 0.0 0.00 0.00 0.00 48 1008.2
20260505180041 74 0.0 0.0 0.00 0.00 0.00 50 1008.1
20260505175020 76 0.0 0.0 0.00 0.00 0.00 48 1008.1
20260505174015 75 0.0 0.0 0.00 0.00 0.00 50 1008.5
20260505173045 75 0.0 0.0 0.00 0.00 0.00 50 1008.4
20260505172047 75 0.0 0.0 0.00 0.00 0.00 49 1008.5
20260505171024 75 0.0 0.0 0.00 0.00 0.00 50 1008.4
20260505170020 73 0.0 0.0 0.00 0.00 0.00 50 1008.7
20260505165017 74 0.0 0.0 0.00 0.00 0.00 50 1008.6
20260505164047 74 0.0 0.0 0.00 0.00 0.00 50 1008.6
20260505163044 74 0.0 0.0 0.00 0.00 0.00 50 1008.9
20260505162045 74 0.0 0.0 0.00 0.00 0.00 50 1008.8
20260505161021 74 0.0 0.0 0.00 0.00 0.00 50 1009.0
20260505153028 75 0.0 0.0 0.00 0.00 0.00 48 1009.4
20260505152044 77 0.0 0.0 0.00 0.00 0.00 45 1009.7
20260505151040 77 0.0 0.0 0.00 0.00 0.00 44 1009.6